Regional Weather Roundup
Issued by NWS Cleveland, OH

Home | Current Version | Previous Version | Graphics & Text | Print | Product List | Glossary On
Versions: 1 2 3 4 5 6 7 8 9 10 11 12 13 14 15 16 17 18 19 20 21 22 23 24 25 26 27 28 29 30 31 32 33 34 35 36 37 38 39 40 41 42 43 44 45 46 47 48 49 50
452
ASUS41 KCLE 120800
RWRCLE
OHIO REGIONAL WEATHER ROUNDUP
NATIONAL WEATHER SERVICE WILMINGTON, OH
300 AM EST FRI FEB 12 2016

NOTE: "FAIR" INDICATES FEW OR NO CLOUDS BELOW 12,000 FEET WITH NO
SIGNIFICANT WEATHER AND/OR OBSTRUCTIONS TO VISIBILITY.

OHZ001>008-015>018-024>027-034-035-043-044-120900-
   NORTHWEST OHIO

CITY           SKY/WX    TMP DP  RH WIND       PRES   REMARKS
DEFIANCE       FAIR      12   5  73 CALM      30.22F
FINDLAY        FAIR      11   4  73 SW3       30.21F
TOLEDO EXPRESS FAIR      10   6  84 SW3       30.21F
TOLEDO EXEC    FAIR      12   6  77 SW6       30.22F WCI   3
LIMA           FAIR      13   5  70 S5        30.20F WCI   5
$$

OHZ009>014-019>023-028>033-038-089-120900-
   NORTHEAST OHIO

CITY           SKY/WX    TMP DP  RH WIND       PRES   REMARKS
CLE-HOPKINS    CLOUDY    13   4  67 SW7       30.23F WCI   3
CLE-LAKEFRONT  CLOUDY    18   6  59 SW15      30.20F WCI   4
CUY CO. ARPT   NOT AVBL
LORAIN-ELYRIA  CLOUDY    12   5  73 SW5       30.20F WCI   4
ASHTABULA      MOCLDY     9   3  77 SW6       30.18F WCI  -1
AKRON-CANTON   CLOUDY    10   3  73 SW5       30.18F WCI   2
WOOSTER        NOT AVBL
MANSFIELD      CLOUDY    13   6  74 SW3       30.17F
YOUNGSTOWN     FAIR       6   0  76 SW6       30.18F WCI  -4
$$

OHZ042-051>053-060>062-070>072-077>081-120900-
  SOUTHWEST OHIO

CITY           SKY/WX    TMP DP  RH WIND       PRES   REMARKS
CINC-COVINGTON CLOUDY    20   8  60 E3        30.21F
CINC-LUNKEN    FAIR      15  12  88 NE5       30.27F WCI   8
HAMILTON       FAIR      12   9  87 CALM      30.25F
DAYTON         NOT AVBL
WRIGHT-PAT AFB CLEAR     10   5  80 E2        30.23F
DAYTON GENERAL FAIR      12   4  70 CALM      30.22F
WILMINGTON     FAIR       7   3  84 CALM      30.22F
$$

OHZ036-037-039>041-045>050-054>059-063>069-073>076-082>088-120900-
  CENTRAL AND SOUTHEAST OHIO

CITY           SKY/WX    TMP DP  RH WIND       PRES   REMARKS
COLUMBUS       FAIR       8   3  80 CALM      30.24F
OSU AIRPORT    FAIR      11   6  81 CALM      30.23S
BOLTON FIELD   NOT AVBL
RICKENBACK AFB NOT AVBL
NEWARK         FAIR       2  -3  80 CALM      30.23F
MARION         FAIR      10   3  73 SW6       30.21F WCI   0
LANCASTER      FAIR       1  -5  75 CALM      30.24F
ZANESVILLE     FAIR       4  -3  73 CALM      30.23F
NEW PHILLY     FAIR       8   4  83 CALM      30.24F
$$




USA.gov is the U.S. government's official web portal to all federal, state and local government web resources and services.